Location: Newark
(46.0000°N, 5.0167°E)
Time: 23:22:12
(UTC+00:00)

ISS - Visible Passes

Search period start: 22 September 2019 00:00
Search period end: 02 October 2019 00:00
Orbit: 411 x 421 km, 51.6° (Epoch: 23 September)

Date Brightness Start Highest point End Pass type
(mag) Time Alt. Az. Time Alt. Az. Time Alt. Az.
22 Sep -3.4 19:22:54 10° WSW 19:26:11 62° NNW 19:26:54 47° NNE visible
23 Sep -3.8 18:34:23 10° WSW 18:37:43 89° SSE 18:40:32 14° ENE visible
23 Sep -1.4 20:11:41 10° WNW 20:13:25 23° NW 20:13:25 23° NW visible
24 Sep -2.6 19:23:00 10° W 19:26:08 38° NNW 19:26:57 32° NNE visible
25 Sep -3.0 18:34:20 10° W 18:37:34 47° NNW 18:40:23 13° NE visible
25 Sep -1.1 20:11:48 10° WNW 20:13:17 20° NW 20:13:17 20° NW visible
26 Sep -2.3 19:23:09 10° WNW 19:26:09 30° N 19:26:39 28° NNE visible
27 Sep -2.4 18:34:28 10° WNW 18:37:31 33° N 18:39:59 14° NE visible
27 Sep -1.0 20:11:43 10° WNW 20:12:53 18° NW 20:12:53 18° NW visible
28 Sep -2.4 19:23:09 10° WNW 19:26:09 30° N 19:26:11 30° N visible
29 Sep -2.3 18:34:30 10° WNW 18:37:29 29° N 18:39:28 17° NE visible
29 Sep -0.8 20:11:26 10° WNW 20:12:21 17° NW 20:12:21 17° NW visible
30 Sep -2.6 19:22:54 10° NW 19:25:38 37° N 19:25:38 37° N visible
01 Oct -2.6 18:34:20 10° WNW 18:37:24 33° N 18:38:54 22° ENE visible
01 Oct -0.7 20:11:03 10° WNW 20:11:48 16° WNW 20:11:48 16° WNW visible
